Volver al catálogo

STARLINK-3356

ActivoComunicacionesVLEO
NORAD 51133·PAYLOAD·🇺🇸 United States

Lanzado Jan 19, 2022 desde Cape Canaveral Space Force Station

Loading…

Próximos Pases (próximas 24 horas)

TLE

ActualizadoSource: CelesTrak SupGP

Época: Sep 14, 2026, 20:33 UTC

1 51133C 22005AF  26257.85673611  .00115860  00000+0  18863-2 0  2576
2 51133  53.1583 153.8558 0001597  89.6045 311.1738 15.51984391    10

Sigue STARLINK-3356 en tiempo real con AllMySat

Download on the App Store